This is the latest recevied weather packets stored in our database for station/object KC8YYF. If no packets are shown the sender has not sent any weather packets the latest 10 day(s).
| Time | Temp. | Humidity | Pressure | Rain* | Wind** | Luminosity | Snow |
|---|---|---|---|---|---|---|---|
| 1777983329 | 15.56° C | 79% | 1008.6 hPa | 0 mm | - | 26 W/m² | - |
| 1777983026 | 15.56° C | 80% | 1008.4 hPa | 0 mm | - | 16 W/m² | - |
| 1777982722 | 15.56° C | 82% | 1008.4 hPa | 0 mm | - | 15 W/m² | - |
| 1777982418 | 15.56° C | 81% | 1008.5 hPa | 0 mm | - | 15 W/m² | - |
| 1777982113 | 15.56° C | 81% | 1008.4 hPa | 0 mm | - | 15 W/m² | - |
| 1777981811 | 15.56° C | 80% | 1008.5 hPa | 0 mm | - | 11 W/m² | - |
| 1777981508 | 15.56° C | 80% | 1008.6 hPa | 0 mm | - | 10 W/m² | - |
| 1777981204 | 15.56° C | 78% | 1008.4 hPa | 0 mm | - | 6 W/m² | - |
| 1777980900 | 15.56° C | 79% | 1008.7 hPa | 0 mm | - | 7 W/m² | - |
| 1777980596 | 15.56° C | 79% | 1008.6 hPa | 0 mm | - | 13 W/m² | - |
| 1777980293 | 15.56° C | 80% | 1008.4 hPa | 0 mm | - | 15 W/m² | - |
| 1777979990 | 15.56° C | 79% | 1008.3 hPa | 0 mm | - | 13 W/m² | - |
| 1777979684 | 15.56° C | 80% | 1008.5 hPa | 0 mm | - | 15 W/m² | - |
| 1777979381 | 15.56° C | 79% | 1008.4 hPa | 0 mm | - | 22 W/m² | - |
| 1777979078 | 15.56° C | 79% | 1008.5 hPa | 0 mm | - | 16 W/m² | - |
| 1777978774 | 15° C | 80% | 1008.5 hPa | 0 mm | - | 10 W/m² | - |
| 1777978471 | 15° C | 80% | 1008.4 hPa | 0 mm | - | 6 W/m² | - |
| 1777978167 | 15° C | 80% | 1008.5 hPa | 0 mm | - | 4 W/m² | - |
| 1777977865 | 15° C | 80% | 1008.3 hPa | 0 mm | - | 2 W/m² | - |
| 1777977561 | 15° C | 81% | 1008.4 hPa | 0 mm | - | 0 W/m² | - |
| 1777977259 | 15° C | 79% | 1008.3 hPa | 0 mm | - | 0 W/m² | - |
| 1777976955 | 15° C | 78% | 1008.2 hPa | 0 mm | - | 0 W/m² | - |
| 1777976652 | 15° C | 78% | 1008.3 hPa | 0 mm | - | 0 W/m² | - |
| 1777976349 | 15° C | 78% | 1008.2 hPa | 0 mm | - | 0 W/m² | - |
| 1777976043 | 15° C | 79% | 1008.2 hPa | 0 mm | - | 0 W/m² | - |
* Rain latest hour (hover to see other rain measurements)
** Current wind speed in m/s (hover to see current wind gust speed)